Regional Weather Roundup
Issued by NWS Goodland, KS

Home | Current Version | Previous Version | Graphics & Text | Print | Product List | Glossary On
Versions: 1 2 3 4 5 6 7 8 9 10 11 12 13 14 15 16 17 18 19 20 21 22 23 24 25 26 27 28 29 30 31 32 33 34 35 36 37 38 39 40 41 42 43 44 45 46 47 48 49 50
000
ASUS43 KGLD 250708
RWRGLD

GOODLAND FORECAST AREA HOURLY WEATHER ROUNDUP
NATIONAL WEATHER SERVICE GOODLAND KS
100 AM MDT WED APR 25 2018

...OFFICIAL OBSERVATIONS...

CITY           SKY/WX    TMP DP  RH WIND       PRES   REMARKS
GOODLAND KS    PTCLDY    32  30  92 NW15      30.36F
HILL CITY KS   CLOUDY    41  37  86 NW15G25   30.35R
IMPERIAL NEB   CLOUDY    36  32  85 NW14      30.39F
MCCOOK NEB     CLOUDY    38  34  85 NW14      30.36F
AKRON CO       CLEAR     27  25  92 N8        30.41F
BURLINGTON CO  CLEAR     33  30  88 N14       30.38F
LIMON CO       PTCLDY    31  28  89 NW9       30.40F
$$

...UNOFFICIAL OBSERVATIONS...

CITY           SKY/WX    TMP DP  RH WIND       PRES   REMARKS
COLBY KS         N/A     36  36 100 N17       30.36F
NORTON KS      CLOUDY    39  36  87 NW16      30.33
SHARON SPRINGS   N/A     36  33  90 NW13        N/A
KIT CARSON CO    N/A     32  28  86 CALM        N/A
YUMA CO        FAIR      30  27  86 NW6       30.41F
$$




USA.gov is the U.S. government's official web portal to all federal, state and local government web resources and services.